Weather History for Buffalo, WY

Change the Weather History Date:

Monday, April 15, 2013

  Actual Average Record
Temperature  
Mean Temperature 22 °F 43 °F  
Max Temperature 29 °F 54 °F 69 °F (2006)
Min Temperature 15 °F 32 °F 15 °F (2013)
Degree Days  
Heating Degree Days 43 22  
Month to date heating degree days 408 363  
Since 1 July heating degree days 6292 6553  
Cooling Degree Days 0 0  
Month to date cooling degree days 0 0  
Year to date cooling degree days 0 0  
Moisture  
Dew Point 13 °F    
Average Humidity 67    
Maximum Humidity 84    
Minimum Humidity 50    
Precipitation  
Precipitation T in 0.03 in 0.32 in (2002)
Month to date precipitation 0.26 0.46  
Year to date precipitation 0.95 2.15  
Sea Level Pressure  
Sea Level Pressure 29.97 in    
Wind  
Wind Speed 11 mph (North)    
Max Wind Speed 22 mph    
Max Gust Speed 28 mph    
Visibility 10 miles    
Events Snow    
T = Trace of Precipitation, MM = Missing Value Source: NWS Daily Summary

Daily Weather History Graph

Daily Weather History Graph

Search for Another Location

Airport:

Trip Planner

Search our weather history database for the weather conditions in past years. The results will help you decide how hot, cold, wet, or windy it might be!

Date:

Astronomy

Apr. 15, 2013 Rise Set
Actual Time 6:22 AM MDT 7:51 PM MDT
Civil Twilight 5:52 AM MDT 8:22 PM MDT
Nautical Twilight 5:15 AM MDT 8:59 PM MDT
Astronomical Twilight 4:36 AM MDT 9:38 PM MDT
Moon 9:44 AM MDT (4/15) 12:12 AM MDT (4/15)
Length of Visible Light 14h 29m
Length of Day
13h 29m
Waxing Crescent, 25% of the Moon is Illuminated
Apr 15
Waxing Crescent
Apr 18
First Quarter
Apr 25
Full
May 2
Last Quarter
May 9
New

Hourly Weather History & Observations

Time (MDT) Temp. Windchill Dew Point Humidity Pressure Visibility Wind Dir Wind Speed Gust Speed Precip Events Conditions
12:53 AM 19.0 °F 5.6 °F 15.1 °F 85% 29.90 in 10.0 mi North 13.8 mph 21.9 mph N/A   Overcast
1:23 AM 19.4 °F 4.5 °F 15.8 °F 86% 29.81 in 10.0 mi North 17.3 mph 24.2 mph N/A   Overcast
1:53 AM 19.0 °F 3.6 °F 15.1 °F 85% 29.91 in 10.0 mi NNW 18.4 mph 27.6 mph N/A   Overcast
2:17 AM 19.4 °F 3.6 °F 15.8 °F 86% 29.82 in 10.0 mi North 19.6 mph 23.0 mph N/A   Overcast
2:30 AM 19.4 °F 4.5 °F 15.8 °F 86% 29.82 in 10.0 mi North 17.3 mph 25.3 mph N/A   Overcast
2:53 AM 18.0 °F 6.9 °F 14.0 °F 84% 29.93 in 10.0 mi NNE 9.2 mph 21.9 mph N/A   Overcast
3:53 AM 17.1 °F 2.0 °F 12.9 °F 84% 29.92 in 7.0 mi North 16.1 mph 23.0 mph 0.00 in Snow Light Snow
4:32 AM 17.6 °F 3.2 °F 12.2 °F 79% 29.80 in 7.0 mi North 15.0 mph 24.2 mph 0.00 in Snow Light Snow
4:53 AM 17.1 °F 3.0 °F 12.9 °F 84% 29.92 in 7.0 mi NNW 13.8 mph 25.3 mph 0.00 in Snow Light Snow
5:53 AM 15.1 °F 1.1 °F 10.9 °F 84% 29.95 in 7.0 mi NNW 12.7 mph - 0.00 in Snow Light Snow
6:08 AM 15.8 °F 3.4 °F 10.4 °F 79% 29.82 in 7.0 mi North 10.4 mph - N/A   Overcast
6:18 AM 15.8 °F 1.4 °F 12.2 °F 86% 29.82 in 9.0 mi North 13.8 mph 23.0 mph N/A   Overcast
6:49 AM 15.8 °F 4.2 °F 12.2 °F 86% 29.84 in 10.0 mi North 9.2 mph 23.0 mph N/A   Overcast
6:53 AM 15.1 °F 5.2 °F 12.0 °F 88% 29.99 in 10.0 mi North 6.9 mph 21.9 mph N/A   Overcast
7:36 AM 17.6 °F 5.0 °F 12.2 °F 79% 29.88 in 10.0 mi North 11.5 mph 18.4 mph N/A   Overcast
7:53 AM 17.1 °F 6.6 °F 12.9 °F 84% 30.03 in 10.0 mi North 8.1 mph - N/A   Overcast
8:53 AM 18.0 °F 6.9 °F 12.9 °F 81% 30.03 in 10.0 mi North 9.2 mph 20.7 mph 0.00 in   Overcast
9:46 AM 21.2 °F 6.0 °F 15.8 °F 80% 29.87 in 10.0 mi North 19.6 mph 25.3 mph N/A   Overcast
9:53 AM 21.0 °F 5.7 °F 15.1 °F 78% 30.01 in 10.0 mi NNW 19.6 mph - N/A   Overcast
10:50 AM 21.2 °F 6.8 °F 15.8 °F 80% 29.90 in 10.0 mi North 17.3 mph 24.2 mph N/A   Mostly Cloudy
10:53 AM 21.9 °F 9.2 °F 14.0 °F 72% 30.03 in 10.0 mi North 13.8 mph 21.9 mph N/A   Mostly Cloudy
11:01 AM 21.2 °F 7.8 °F 15.8 °F 80% 29.90 in 10.0 mi North 15.0 mph 24.2 mph N/A   Mostly Cloudy
11:22 AM 21.2 °F 6.8 °F 12.2 °F 68% 29.91 in 10.0 mi North 17.3 mph 23.0 mph N/A   Overcast
11:50 AM 23.0 °F 9.6 °F 14.0 °F 68% 29.91 in 10.0 mi North 16.1 mph 24.2 mph N/A   Overcast
11:53 AM 23.0 °F 11.1 °F 14.0 °F 68% 30.04 in 10.0 mi NNW 12.7 mph 24.2 mph N/A   Overcast
12:53 PM 25.0 °F 13.1 °F 14.0 °F 63% 30.04 in 10.0 mi North 13.8 mph 23.0 mph N/A   Overcast
1:53 PM 27.0 °F 16.1 °F 12.9 °F 56% 30.02 in 10.0 mi North 12.7 mph 24.2 mph 0.00 in   Overcast
2:38 PM 26.6 °F 16.2 °F 12.2 °F 55% 29.91 in 10.0 mi North 11.5 mph 23.0 mph N/A   Overcast
2:53 PM 27.0 °F 16.1 °F 12.9 °F 56% 30.04 in 10.0 mi NNW 12.7 mph 24.2 mph N/A   Overcast
3:53 PM 28.0 °F 17.0 °F 12.0 °F 51% 30.04 in 10.0 mi North 13.8 mph 23.0 mph N/A   Overcast
4:53 PM 26.1 °F 13.1 °F 12.9 °F 58% 30.06 in 10.0 mi North 17.3 mph 25.3 mph N/A   Overcast
5:46 PM 24.8 °F 12.4 °F 12.2 °F 59% 29.95 in 10.0 mi North 15.0 mph 24.2 mph N/A   Overcast
5:53 PM 26.1 °F 14.0 °F 12.0 °F 55% 30.09 in 10.0 mi North 15.0 mph 25.3 mph N/A   Overcast
6:53 PM 24.1 °F 12.5 °F 12.9 °F 62% 30.13 in 10.0 mi NNW 12.7 mph 24.2 mph N/A   Overcast
7:53 PM 24.1 °F 16.0 °F 14.0 °F 65% 30.14 in 10.0 mi NE 6.9 mph 18.4 mph N/A   Overcast
8:53 PM 24.1 °F 16.0 °F 12.9 °F 62% 30.17 in 10.0 mi NNW 6.9 mph - N/A   Overcast
9:53 PM 24.1 °F 18.2 °F 12.9 °F 62% 30.17 in 10.0 mi North 4.6 mph - N/A   Overcast
10:53 PM 23.0 °F 18.4 °F 15.1 °F 72% 30.18 in 10.0 mi North 3.5 mph - N/A   Overcast
11:53 PM 21.0 °F 11.4 °F 14.0 °F 74% 30.13 in 10.0 mi NNE 8.1 mph - N/A   Overcast